Redmond, OR

1:46 PM PDT on April 25, 2017 (GMT -0700)
Roberts Field Airport

Weather History for KRDM - March, 2014

Change the Weather History Date:

Sunday, March 9, 2014

  Actual Average Record
Temperature  
Mean Temperature 52 °F 39 °F  
Max Temperature 62 °F 52 °F 70 °F (2005)
Min Temperature 42 °F 25 °F 13 °F (2009)
Degree Days  
Heating Degree Days 13 26  
Month to date heating degree days 187 243  
Since 1 July heating degree days 4980 4916  
Cooling Degree Days 0 0  
Month to date cooling degree days 0 0  
Year to date cooling degree days 0 0  
Moisture  
Dew Point 43 °F    
Average Humidity 71    
Maximum Humidity 89    
Minimum Humidity 53    
Precipitation  
Precipitation 0.27 in 0.02 in 0.30 in (2000)
Month to date precipitation 0.42 0.17  
Year to date precipitation 2.33 1.79  
Sea Level Pressure  
Sea Level Pressure 29.95 in    
Wind  
Wind Speed 11 mph (SW)    
Max Wind Speed 23 mph    
Max Gust Speed 29 mph    
Visibility 9 miles    
Events Rain    
T = Trace of Precipitation, MM = Missing Value Source: NWS Daily Summary

Daily Weather History Graph

Daily Weather History Graph

Search for Another Location

Airport or City:

Trip Planner

Search our weather history database for the weather conditions in past years. The results will help you decide how hot, cold, wet, or windy it might be!

Date:

Astronomy

Mar. 09, 2014 Rise Set
Actual Time 7:27 AM PDT 7:03 PM PDT
Civil Twilight 6:58 AM PDT 7:32 PM PDT
Nautical Twilight 6:25 AM PDT 8:05 PM PDT
Astronomical Twilight 5:51 AM PDT 8:39 PM PDT
Moon 12:51 PM PDT (3/9) 3:06 AM PDT (3/9)
Length of Visible Light 12h 33m
Length of Day
11h 35m
First Quarter, 62% of the Moon is Illuminated
Mar 9
First Quarter
Mar 16
Full
Mar 23
Last Quarter
Mar 30
New
Apr 7
First Quarter

Hourly Weather History & Observations

Time (PDT) Temp. Windchill Dew Point Humidity Pressure Visibility Wind Dir Wind Speed Gust Speed Precip Events Conditions
12:56 AM 54.0 °F - 42.1 °F 64% 29.96 in 10.0 mi South 12.7 mph 21.9 mph N/A   Overcast
1:56 AM 54.0 °F - 42.1 °F 64% 29.94 in 10.0 mi South 16.1 mph 26.5 mph N/A   Overcast
3:56 AM 53.1 °F - 43.0 °F 69% 29.94 in 10.0 mi SSW 18.4 mph 26.5 mph 0.00 in Rain Light Rain
4:56 AM 50.0 °F - 44.1 °F 80% 29.94 in 10.0 mi SSW 10.4 mph - 0.00 in Rain Light Rain
5:56 AM 50.0 °F - 45.0 °F 83% 29.97 in 10.0 mi SSW 6.9 mph - 0.00 in Rain Light Rain
6:56 AM 51.1 °F - 44.1 °F 77% 29.94 in 10.0 mi South 12.7 mph - 0.01 in   Scattered Clouds
7:56 AM 51.1 °F - 43.0 °F 74% 29.96 in 10.0 mi SSW 10.4 mph - N/A   Scattered Clouds
8:56 AM 51.1 °F - 43.0 °F 74% 29.97 in 10.0 mi South 16.1 mph 24.2 mph 0.00 in   Mostly Cloudy
9:56 AM 54.0 °F - 43.0 °F 66% 29.97 in 10.0 mi SSW 16.1 mph 21.9 mph N/A   Scattered Clouds
10:56 AM 57.0 °F - 43.0 °F 59% 29.97 in 10.0 mi SW 18.4 mph 26.5 mph N/A   Mostly Cloudy
11:56 AM 57.0 °F - 44.1 °F 62% 29.98 in 10.0 mi SSW 18.4 mph 25.3 mph N/A   Mostly Cloudy
12:56 PM 57.9 °F - 44.1 °F 60% 29.97 in 10.0 mi SSW 17.3 mph 23.0 mph 0.00 in   Overcast
1:56 PM 59.0 °F - 43.0 °F 55% 29.94 in 10.0 mi South 16.1 mph 26.5 mph N/A   Overcast
2:56 PM 59.0 °F - 43.0 °F 55% 29.93 in 10.0 mi South 13.8 mph 21.9 mph N/A   Overcast
3:56 PM 55.9 °F - 43.0 °F 62% 29.95 in 10.0 mi NW 10.4 mph - 0.00 in   Overcast
4:56 PM 53.1 °F - 44.1 °F 71% 29.96 in 10.0 mi WNW 9.2 mph - 0.00 in Rain Light Rain
5:56 PM 50.0 °F - 46.0 °F 86% 29.96 in 3.0 mi NNW 6.9 mph - 0.06 in Rain Rain
6:56 PM 48.0 °F - 46.0 °F 93% 29.94 in 10.0 mi ESE 4.6 mph - 0.01 in   Overcast
7:56 PM 48.0 °F - 45.0 °F 89% 29.93 in 10.0 mi Calm Calm - N/A   Overcast
8:43 PM 48.0 °F - 46.0 °F 93% 29.96 in 3.0 mi WNW 6.9 mph - 0.03 in Rain Rain
8:56 PM 46.9 °F - 44.1 °F 90% 29.96 in 4.0 mi WNW 9.2 mph - 0.06 in Rain Rain
9:21 PM 45.0 °F 39.7 °F 42.1 °F 90% 29.96 in 7.0 mi NW 10.4 mph - 0.03 in Rain Light Rain
9:56 PM 44.1 °F 38.6 °F 41.0 °F 89% 29.96 in 5.0 mi NW 10.4 mph - 0.08 in Rain Rain
10:56 PM 44.1 °F 39.0 °F 37.9 °F 79% 29.94 in 10.0 mi NW 9.2 mph 17.3 mph 0.02 in   Overcast
11:56 PM 42.1 °F - 39.0 °F 89% 29.95 in 10.0 mi Calm Calm - N/A   Overcast
12:56 AM 42.1 °F - 39.9 °F 92% 29.95 in 10.0 mi Calm Calm - 0.03 in Rain Light Rain